This demonstration page uses our WeatherBlox Daily Observations layout. Learn more.

Left ArrowRight Arrow

38.80484, -77.04692

Hourly Observations for February 9, 2016

Temp ( °F °C ) Dew Point ( °F °C ) Humidity (%) Winds ( mph kmh ) Pressure ( in mb ) Visibility ( mi km ) Precip ( " mm )
12:20 am 00:20 Cloudy 39 4 34 1 81 81 SE 7 11 29.65 1004 10 16 0.00 0.00
12:47 am 00:47 Cloudy with Light Rain 37 3 34 1 87 87 SE 7 11 29.65 1004 10 16 0.00 0.03
12:52 am 00:52 Cloudy with Light Rain 38 3.3 34 1.1 86 86 SE 7 11 29.64 1004 10 16 0.00 0.03
1:17 am 01:17 Cloudy with Light Rain 38 3.3 34 1.1 86 86 ESE 8 13 29.65 1004 10 16 0.00 0.03
1:52 am 01:52 Cloudy with Light Rain 38 3.3 34 1.1 86 86 E 7 11 29.62 1003 10 16 0.00 0.03
2:52 am 02:52 Cloudy with Light Rain 38 3.3 34 1.1 86 86 E 8 13 29.59 1002 10 16 0.00 0.03
3:52 am 03:52 Cloudy with Light Rain 38 3.3 34 1.1 86 86 E 8 13 29.58 1002 10 16 0.00 0.03
4:11 am 04:11 Cloudy with Light Rain/Snow 38 3.3 35 1.7 89 89 E 7 11 29.59 1002 8 13 0.00 0.03
4:52 am 04:52 Cloudy with Light Rain 37 2.8 35 1.7 93 93 E 6 9 29.58 1002 4 6 0.03 0.76
5:12 am 05:12 Cloudy with Light Rain/Snow 37 3 36 2 93 93 E 8 13 29.59 1002 4 6 0.00 0.00
5:37 am 05:37 Cloudy with Light Rain/Snow 37 2.8 34 1.1 89 89 E 5 7 29.59 1002 4 6 0.05 1.27
5:52 am 05:52 Cloudy with Light Rain/Snow 36 2.2 34 1.1 93 93 E 5 7 29.58 1002 4 6 0.07 1.78
6:52 am 06:52 Cloudy with Light Rain/Snow 36 2.2 34 1.1 93 93 E 3 6 29.58 1002 5 8 0.05 1.27
6:58 am 06:58 Cloudy with Light Rain/Snow 36 2 34 1 93 93 ESE 5 7 29.59 1002 5 8 0.00 0.00
7:30 am 07:30 Cloudy with Light Rain/Snow 36 2 34 1 93 93 Calm 29.59 1002 4 6 0.00 0.00
7:36 am 07:36 Cloudy with Light Rain/Snow 36 2 34 1 93 93 Calm 29.59 1002 3 4 0.00 0.00
7:43 am 07:43 Cloudy with Light Rain/Snow 36 2.2 34 1.1 93 93 Calm 29.59 1002 3 5 0.02 0.51
7:52 am 07:52 Cloudy with Light Rain/Snow 36 2.2 34 1.1 93 93 Calm 29.59 1002 3 5 0.02 0.51
8:52 am 08:52 Cloudy with Light Rain 36 2.2 34 1.1 93 93 Calm 29.60 1002 6 10 0.00 0.03
9:32 am 09:32 Cloudy with Light Rain 37 3 36 2 93 93 Calm 29.59 1002 3 5 0.00 0.00
9:52 am 09:52 Cloudy with Light Rain 37 2.8 34 1.1 89 89 Calm 29.59 1002 6 10 0.01 0.25
10:33 am 10:33 Cloudy with Light Rain 37 2.8 35 1.7 93 93 Calm 29.59 1002 6 10 0.00 0.03
10:52 am 10:52 Cloudy with Light Rain 37 2.8 35 1.7 93 93 Calm 29.58 1002 6 10 0.00 0.03
11:22 am 11:22 Cloudy with Light Rain/Snow 37 3 36 2 93 93 VRB 6 9 29.59 1002 3 4 0.00 0.00
11:47 am 11:47 Cloudy with Light Rain/Snow 36 2 34 1 93 93 VRB 6 9 29.59 1002 4 6 0.04 1.02
11:52 am 11:52 Cloudy with Light Rain 37 2.8 34 1.1 89 89 NW 8 13 29.57 1002 6 10 0.04 1.02
12:06 pm 12:06 Cloudy with Light Rain 37 2.8 34 1.1 89 89 W 6 9 29.56 1001 10 16 0.00 0.03
12:52 pm 12:52 Cloudy with Light Rain 38 3.3 33 0.6 83 83 NW 9 15 29.56 1001 10 16 0.00 0.03
12:57 pm 12:57 Cloudy with Light Rain 38 3.3 34 1.1 86 86 NW 9 15 29.56 1001 10 16 0.00 0.03
1:29 pm 13:29 Cloudy with Light Rain 38 3.3 34 1.1 86 86 WNW 13 20 29.56 1001 10 16 0.00 0.03
1:52 pm 13:52 Cloudy 38 3.3 34 1.1 86 86 NNW 12 19 29.56 1001 10 16 0.00 0.03
2:16 pm 14:16 Cloudy 39 3.9 33 0.6 79 79 NNW 17 28 29.56 1001 10 16 0.00 0.00
2:52 pm 14:52 Mostly Cloudy 40 4.4 32 0 73 73 NNW 16 26 29.56 1001 10 16 0.00 0.00
2:59 pm 14:59 Mostly Cloudy 39 3.9 31 -0.6 73 73 NW 15 24 29.56 1001 10 16 0.00 0.00
3:07 pm 15:07 Mostly Cloudy 39 3.9 31 -0.6 73 73 NNW 14 22 29.56 1001 10 16 0.00 0.00
3:14 pm 15:14 Cloudy with Light Rain 39 4 30 -1 70 70 NNW 15 24 29.56 1001 10 16 0.00 0.00
3:47 pm 15:47 Cloudy 39 4 30 -1 70 70 NNW 13 20 29.59 1002 10 16 0.00 0.03
3:52 pm 15:52 Cloudy 39 3.9 30 -1.1 70 70 NNW 9 15 29.58 1002 10 16 0.00 0.03
4:52 pm 16:52 Mostly Cloudy 38 3.3 28 -2.2 68 68 NNW 10 17 29.60 1002 10 16 0.00 0.00
5:52 pm 17:52 Mostly Cloudy 36 2.2 27 -2.8 70 70 NNW 13 20 29.63 1003 10 16 0.00 0.00
6:52 pm 18:52 Partly Cloudy 35 1.7 27 -2.8 72 72 N 14 22 29.65 1004 10 16 0.00 0.00
7:52 pm 19:52 Mostly Cloudy 35 1.7 26 -3.3 70 70 NW 7 11 29.66 1004 10 16 0.00 0.00
8:52 pm 20:52 Mostly Cloudy 35 1.7 22 -5.6 59 59 WNW 9 15 29.67 1005 10 16 0.00 0.00
9:52 pm 21:52 Mostly Cloudy 33 0.6 19 -7.2 56 56 WNW 12 19 29.70 1006 10 16 0.00 0.00
10:52 pm 22:52 Cloudy 33 0.6 19 -7.2 56 56 NW 13 20 29.70 1006 10 16 0.00 0.00
11:52 pm 23:52 Cloudy 32 0 19 -7.2 59 59 NW 10 17 29.70 1006 10 16 0.00 0.00

Powered by AerisWeather